[Date Prev][Date Next][Thread Prev][Thread Next] - [Date Index][Thread Index][Author Index]
2 Line ISS Keps 12-13
- Subject: [sarex] 2 Line ISS Keps 12-13
- From: "Dave Larsen PhD" <doc@xxxxxxxxxxx>
- Date: Thu, 13 Dec 2001 03:20:17 -0800
ISS
1 25544U 98067A 01347.27858192 .00106615 00000-0 13054-2 0 8349
2 25544 51.6391 267.5277 0001994 49.4385 88.4663 15.59536754175030
----
Via the sarex mailing list at AMSAT.ORG courtesy of AMSAT-NA.
To unsubscribe, send "unsubscribe sarex" to Majordomo@amsat.org
AMSAT Home